Location: Drocourt
(49.0571°N, 1.7669°E)
Time: 00:18:21
(UTC+00:00)

SR - Pass Details

Date: 17 April 2024
Orbit: 579 x 859 km, 66.7° (Epoch: 25 May)

Event Time Altitude Azimuth Distance (km) Brightness Sun altitude
Rises 10:58:57 0° 322° (NW) 3,011 ? 50.1°
Reaches altitude 10° 11:01:21 10° 320° (NW) 2,052 ? 50.2°
Maximum altitude 11:05:53 66° 239° (WSW) 675 ? 50.5°
Drops below altitude 10° 11:10:09 10° 157° (SSE) 1,920 ? 50.7°
Sets 11:12:20 0° 155° (SSE) 2,799 ? 50.8°
